• Em Portugal
  • Lista de países
  • Para 7 dias
  • Temperatura da água
  • Mapas de satélite
  • Mapa do tempo
  • Widgets de tempo
  • user-avatar
    Iniciar Sessão

    Previsão horária em Mendoza

    Hoje, 21 Setembro, Sexta-feira

    Tempo Temperatura Precipitação Vento Pressão Humidade
    00:00 +19°C° 0 mm 3 m/s 695 mmHg 32%
    01:00 +18°C° 0 mm 3 m/s 695 mmHg 38%
    02:00 +18°C° 0 mm 3 m/s 695 mmHg 38%
    03:00 +17°C° 0 mm 3 m/s 695 mmHg 39%
    04:00 +17°C° 0 mm 3 m/s 695 mmHg 39%
    05:00 +18°C° 0 mm 3 m/s 695 mmHg 39%
    06:00 +19°C° 0 mm 3 m/s 695 mmHg 39%
    07:00 +20°C° 0 mm 2 m/s 696 mmHg 42%
    08:00 +21°C° 0 mm 2 m/s 696 mmHg 36%
    09:00 +24°C° 0 mm 3 m/s 696 mmHg 30%
    10:00 +26°C° 0 mm 3 m/s 696 mmHg 25%
    11:00 +28°C° 0 mm 4 m/s 695 mmHg 21%
    12:00 +29°C° 0 mm 4 m/s 695 mmHg 18%
    13:00 +32°C° 0 mm 5 m/s 694 mmHg 15%
    14:00 +32°C° 0 mm 5 m/s 694 mmHg 14%
    15:00 +32°C° 0 mm 5 m/s 694 mmHg 13%
    16:00 +32°C° 0 mm 4 m/s 693 mmHg 12%
    17:00 +30°C° 0 mm 4 m/s 693 mmHg 15%
    18:00 +28°C° 0 mm 3 m/s 693 mmHg 17%
    19:00 +26°C° 0 mm 2 m/s 693 mmHg 20%
    20:00 +25°C° 0 mm 3 m/s 693 mmHg 19%
    21:00 +25°C° 0 mm 3 m/s 693 mmHg 18%
    22:00 +23°C° 0 mm 4 m/s 693 mmHg 18%
    23:00 +22°C° 0 mm 4 m/s 693 mmHg 15%

    Amanhã, 22 Setembro, Sábado

    Tempo Temperatura Precipitação Vento Pressão Humidade
    00:00 +21°C° 0 mm 4 m/s 692 mmHg 13%
    01:00 +21°C° 0 mm 5 m/s 692 mmHg 10%
    02:00 +20°C° 0 mm 5 m/s 692 mmHg 10%
    03:00 +19°C° 0 mm 5 m/s 692 mmHg 11%
    04:00 +19°C° 0 mm 5 m/s 692 mmHg 11%
    05:00 +20°C° 0 mm 5 m/s 692 mmHg 10%
    06:00 +21°C° 0 mm 5 m/s 692 mmHg 10%
    07:00 +22°C° 0 mm 5 m/s 693 mmHg 10%
    08:00 +25°C° 0 mm 5 m/s 693 mmHg 8%
    09:00 +27°C° 0 mm 5 m/s 693 mmHg 7%
    10:00 +29°C° 0 mm 5 m/s 693 mmHg 6%
    11:00 +30°C° 0 mm 5 m/s 693 mmHg 6%
    12:00 +32°C° 0 mm 5 m/s 693 mmHg 6%
    13:00 +33°C° 0 mm 5 m/s 693 mmHg 6%
    14:00 +33°C° 0 mm 5 m/s 693 mmHg 6%
    15:00 +33°C° 0 mm 5 m/s 693 mmHg 6%
    16:00 +33°C° 0 mm 5 m/s 693 mmHg 6%
    17:00 +30°C° 0 mm 6 m/s 693 mmHg 8%
    18:00 +28°C° 0 mm 6 m/s 693 mmHg 10%
    19:00 +27°C° 0 mm 6 m/s 694 mmHg 12%
    20:00 +26°C° 0 mm 6 m/s 694 mmHg 13%
    21:00 +24°C° 0 mm 6 m/s 694 mmHg 13%
    22:00 +23°C° 0 mm 6 m/s 694 mmHg 14%
    23:00 +22°C° 0 mm 5 m/s 694 mmHg 16%

    Depois de amanhã, 23 Setembro, Domingo

    Tempo Temperatura Precipitação Vento Pressão Humidade
    00:00 +21°C° 0 mm 5 m/s 693 mmHg 19%
    01:00 +21°C° 0 mm 5 m/s 693 mmHg 21%
    02:00 +20°C° 0 mm 6 m/s 693 mmHg 27%
    03:00 +19°C° 0 mm 6 m/s 693 mmHg 32%
    04:00 +17°C° 0 mm 7 m/s 693 mmHg 38%
    05:00 +17°C° 0 mm 7 m/s 694 mmHg 36%
    06:00 +17°C° 0 mm 8 m/s 695 mmHg 35%
    07:00 +17°C° 0 mm 8 m/s 695 mmHg 34%
    08:00 +18°C° 0 mm 8 m/s 696 mmHg 32%
    09:00 +20°C° 0 mm 7 m/s 696 mmHg 29%
    10:00 +22°C° 0 mm 7 m/s 696 mmHg 27%
    11:00 +22°C° 0 mm 7 m/s 696 mmHg 25%
    12:00 +23°C° 0 mm 6 m/s 696 mmHg 23%
    13:00 +24°C° 0 mm 6 m/s 696 mmHg 21%
    14:00 +24°C° 0 mm 6 m/s 696 mmHg 21%
    15:00 +25°C° 0 mm 5 m/s 696 mmHg 20%
    16:00 +25°C° 0 mm 5 m/s 696 mmHg 19%
    17:00 +23°C° 0 mm 5 m/s 696 mmHg 21%
    18:00 +22°C° 0 mm 4 m/s 697 mmHg 23%
    19:00 +21°C° 0 mm 3 m/s 697 mmHg 25%
    20:00 +20°C° 0 mm 3 m/s 698 mmHg 28%
    21:00 +19°C° 0 mm 4 m/s 698 mmHg 30%
    22:00 +18°C° 0 mm 4 m/s 698 mmHg 32%
    23:00 +17°C° 0 mm 4 m/s 698 mmHg 35%

    24 Setembro, Segunda-feira

    Tempo Temperatura Precipitação Vento Pressão Humidade
    00:00 +17°C° 0 mm 4 m/s 698 mmHg 39%
    01:00 +15°C° 0 mm 5 m/s 697 mmHg 42%
    02:00 +14°C° 0 mm 5 m/s 697 mmHg 46%
    03:00 +13°C° 0 mm 5 m/s 697 mmHg 49%
    04:00 +12°C° 0 mm 4 m/s 697 mmHg 53%
    05:00 +13°C° 0 mm 5 m/s 697 mmHg 52%
    06:00 +13°C° 0 mm 5 m/s 698 mmHg 52%
    07:00 +13°C° 0 mm 5 m/s 698 mmHg 51%
    08:00 +15°C° 0 mm 5 m/s 698 mmHg 47%
    09:00 +16°C° 0 mm 5 m/s 698 mmHg 42%
    10:00 +19°C° 0 mm 6 m/s 698 mmHg 37%
    11:00 +20°C° 0 mm 5 m/s 697 mmHg 34%
    12:00 +20°C° 0 mm 5 m/s 697 mmHg 32%
    13:00 +21°C° 0 mm 4 m/s 696 mmHg 30%
    14:00 +21°C° 0 mm 4 m/s 696 mmHg 29%
    15:00 +22°C° 0 mm 3 m/s 696 mmHg 28%
    16:00 +22°C° 0 mm 3 m/s 695 mmHg 27%
    17:00 +21°C° 0 mm 3 m/s 696 mmHg 30%
    18:00 +20°C° 0 mm 2 m/s 696 mmHg 32%
    19:00 +19°C° 0 mm 2 m/s 696 mmHg 34%
    20:00 +19°C° 0 mm 2 m/s 696 mmHg 35%
    21:00 +19°C° 0 mm 2 m/s 696 mmHg 35%
    22:00 +18°C° 0 mm 2 m/s 696 mmHg 36%
    23:00 +18°C° 0 mm 2 m/s 696 mmHg 37%

    25 Setembro, Terça-feira

    Tempo Temperatura Precipitação Vento Pressão Humidade
    00:00 +17°C° 0 mm 2 m/s 695 mmHg 38%
    01:00 +17°C° 0 mm 3 m/s 695 mmHg 39%
    02:00 +16°C° 0 mm 2 m/s 695 mmHg 40%
    03:00 +16°C° 0 mm 2 m/s 695 mmHg 42%
    04:00 +15°C° 0 mm 2 m/s 695 mmHg 43%
    05:00 +16°C° 0 mm 3 m/s 695 mmHg 40%
    06:00 +17°C° 0 mm 3 m/s 696 mmHg 38%
    07:00 +18°C° 0 mm 3 m/s 696 mmHg 36%
    08:00 +19°C° 0 mm 3 m/s 696 mmHg 33%
    09:00 +21°C° 0 mm 4 m/s 696 mmHg 31%
    10:00 +22°C° 0 mm 4 m/s 696 mmHg 28%
    11:00 +23°C° 0 mm 4 m/s 696 mmHg 27%
    12:00 +25°C° 0 mm 4 m/s 696 mmHg 26%
    13:00 +26°C° 0 mm 4 m/s 695 mmHg 24%
    14:00 +26°C° 0 mm 4 m/s 695 mmHg 25%
    15:00 +26°C° 0 mm 4 m/s 695 mmHg 25%
    16:00 +26°C° 0 mm 4 m/s 694 mmHg 25%
    17:00 +25°C° 0 mm 3 m/s 695 mmHg 28%
    18:00 +24°C° 0 mm 3 m/s 695 mmHg 30%
    19:00 +22°C° 0 mm 3 m/s 695 mmHg 33%
    20:00 +21°C° 0 mm 3 m/s 695 mmHg 35%
    21:00 +20°C° 0 mm 4 m/s 695 mmHg 37%
    22:00 +20°C° 0 mm 4 m/s 695 mmHg 40%
    23:00 +19°C° 0 mm 4 m/s 695 mmHg 43%

    26 Setembro, Quarta-feira

    Tempo Temperatura Precipitação Vento Pressão Humidade
    00:00 +18°C° 0 mm 4 m/s 695 mmHg 46%
    01:00 +16°C° 0 mm 5 m/s 695 mmHg 50%
    02:00 +16°C° 0 mm 5 m/s 694 mmHg 51%
    03:00 +15°C° 0 mm 5 m/s 694 mmHg 52%
    04:00 +15°C° 0 mm 5 m/s 694 mmHg 53%
    05:00 +15°C° 0 mm 6 m/s 695 mmHg 53%
    06:00 +15°C° 0 mm 6 m/s 695 mmHg 53%
    07:00 +15°C° 0 mm 6 m/s 695 mmHg 53%
    08:00 +16°C° 0 mm 6 m/s 695 mmHg 51%
    09:00 +17°C° 0 mm 6 m/s 695 mmHg 50%
    10:00 +19°C° 0 mm 6 m/s 695 mmHg 48%
    11:00 +19°C° 0 mm 6 m/s 695 mmHg 47%
    12:00 +20°C° 0 mm 6 m/s 694 mmHg 45%
    13:00 +20°C° 0 mm 6 m/s 694 mmHg 44%
    14:00 +20°C° 0 mm 6 m/s 694 mmHg 46%
    15:00 +19°C° 0 mm 6 m/s 694 mmHg 47%
    16:00 +19°C° 0 mm 6 m/s 693 mmHg 49%
    17:00 +17°C° 0 mm 6 m/s 694 mmHg 52%
    18:00 +16°C° 0 mm 6 m/s 695 mmHg 56%
    19:00 +15°C° 0 mm 6 m/s 695 mmHg 59%
    20:00 +14°C° 0 mm 5 m/s 695 mmHg 61%
    21:00 +14°C° 0 mm 5 m/s 696 mmHg 62%
    22:00 +13°C° 0 mm 5 m/s 696 mmHg 64%
    23:00 +12°C° 0 mm 5 m/s 695 mmHg 65%
    Mostrar mais